Regional Weather Roundup
Issued by NWS

Home | Current Version | Previous Version | Graphics & Text | Print | Product List | Glossary Off
Versions: 1 2 3 4 5 6 7 8 9 10 11 12 13 14 15 16 17 18 19 20 21 22 23 24 25 26 27

000
ASUS45 KTFX 240010
RWRMT
MONTANA REGIONAL WEATHER ROUNDUP
NATIONAL WEATHER SERVICE GREAT FALLS MT
600 PM MDT TUE MAY 23 2017

NOTE: "FAIR" INDICATES FEW OR NO CLOUDS BELOW 12000 FEET WITH NO
SIGNIFICANT WEATHER AND/OR OBSTRUCTIONS TO VISIBILITY.

MTZ001>007-043-240100-
WEST OF THE DIVIDE

CITY           SKY/WX    TMP DP  RH WIND       PRES   REMARKS
KALISPELL      SUNNY     79  49  34 S16G24    29.77F
MISSOULA       SUNNY     84  44  24 N5        29.85F
BUTTE          SUNNY     76  32  20 SW6       29.98F
MULLAN PASS    SUNNY     64  31  28 SW12G23   30.01F
ANACONDA         N/A     79  30  17 W12G22    29.94F
DEER LODGE       N/A     75  45  33 NW7       29.95F
EUREKA           N/A     82  36  18 S15       29.74F
HAMILTON         N/A     82  37  20 SW8       29.89F
PLAINS           N/A     84  43  23 S13       29.82F
RONAN            N/A     81  45  28 SE7       29.89F
$$

MTZ008-052>055-240100-
SOUTHWEST MONTANA

CITY           SKY/WX    TMP DP  RH WIND       PRES   REMARKS
BOZEMAN        SUNNY     76  42  29 E5        29.93F
DILLON         SUNNY     77  31  18 W17       29.97F
W YELLOWSTONE  PTSUNNY   68  36  30 SW12G20   30.11F
ENNIS          SUNNY     73  37  27 CALM      30.04F
THREE FORKS      N/A     79  43  27 SE7       29.92F
TWIN BRIDGES     N/A     78  38  23 E7        29.95F
$$

MTZ009-010-012-014-046-048-049-054-240100-
EAST SLOPES AND CENTRAL MONTANA

CITY           SKY/WX    TMP DP  RH WIND       PRES   REMARKS
CUT BANK       SUNNY     76  38  25 W21G28    29.78F
GREAT FALLS    SUNNY     80  46  30 SW13      29.81F
MALMSTROM AFB  SUNNY     78  46  31 SW10G22   29.82F
HELENA         SUNNY     80  44  27 E10       29.85F
CHOTEAU          N/A     81  41  24 SW9G16    29.82F
CONRAD           N/A     82  50  32 S6        29.84F
$$

MTZ011-013-016-021-045-047-050-051-240100-
NORTH CENTRAL MONTANA

CITY           SKY/WX    TMP DP  RH WIND       PRES   REMARKS
HAVRE          MOSUNNY   80  43  26 S15       29.77F
LEWISTOWN      SUNNY     74  42  31 E8        29.89F
N BAR RANCH      N/A     70  45  40 S16G22    29.96F
CHINOOK          N/A     82  43  24 S8        29.78F
$$

MTZ017>020-022>027-061-062-240100-
NORTHEAST MONTANA

CITY           SKY/WX    TMP DP  RH WIND       PRES   REMARKS
GLASGOW        PTSUNNY   71  30  21 S17       29.90F
JORDAN           N/A     73  25  16 S15       29.92F
SIDNEY         SUNNY     71  29  21 S6        29.96F
WOLF POINT     MOSUNNY   74  29  19 SW12      29.92F
MALTA          SUNNY     77  34  20 S10G18    29.83F
PLENTYWOOD       N/A     72  28  20 S10       29.94F
POPLAR           N/A     73  30  20 S10       29.93F
SCOBEY           N/A     71  32  23 S13       29.91F
$$

MTZ028>42-056>058-240100-
SOUTHCENTRAL AND SOUTHEAST MONTANA

CITY           SKY/WX    TMP DP  RH WIND       PRES   REMARKS
BAKER          MOSUNNY   64  30  27 SW5       30.02F
BILLINGS       PTSUNNY   71  40  32 SE12      29.95F
LIVINGSTON     SUNNY     77  41  27 W16       29.93F
MILES CITY     CLOUDY    68  31  25 S10       29.98F
BIG TIMBER     SUNNY     75  37  25 NW9G15    29.96F
FORSYTH          N/A     72  30  21 SE8       29.95F
LAUREL           N/A     71  40  32 E2        29.94F
ROUNDUP          N/A     70  39  32 SE9       29.86F
$$

REGIONAL REPORTS...DAKOTAS

CITY           SKY/WX    TMP DP  RH WIND       PRES   REMARKS
WILLISTON      MOSUNNY   71  33  24 SE9       29.98F
MINOT          SUNNY     67  32  27 E8        29.98F
DICKINSON      SUNNY     63  28  26 NE5       30.01F
BEACH            N/A     64  25  22 CALM      30.04F
TIOGA            N/A     66  30  26 S10G17    30.00F
WATFORD CITY     N/A     66  32  28 SE7       29.99F
BISMARCK       SUNNY     65  36  34 E15       30.00F
GRAND FORKS    CLOUDY    63  43  48 E12       29.96S
FARGO          PTSUNNY   58  43  57 N14       29.94S
BUFFALO SD       N/A     65  34  31 NE9       29.97F
RAPID CITY     SUNNY     63  34  33 N15       30.03F
$$

REGIONAL REPORTS...WYOMING/IDAHO/WASHINGTON

CITY           SKY/WX    TMP DP  RH WIND       PRES   REMARKS
GILLETTE       CLOUDY    60  36  40 CALM      30.06F
SHERIDAN       MOSUNNY   65  33  30 SE3       30.03F
BUFFALO WY     CLOUDY    62  33  33 CALM      30.08F
CODY           CLOUDY    68  38  33 SE10      30.03F
YELLOWSTONE LA   N/A     60  34  37 SW8       30.20F
IDAHO FALLS    SUNNY     77  38  24 SW13      30.06F
SALMON         SUNNY     79  43  27 N5        29.89F
BOISE          SUNNY     86  40  19 N10       29.95F
SPOKANE        MOSUNNY   81  45  28 SW14G23   29.82F
$$

REGIONAL REPORTS...ALBERTA

CITY           SKY/WX    TMP DP  RH WIND       PRES   REMARKS
EDMONTON       SUNNY     82  41  23 NE7       29.48F
CALGARY        PTSUNNY   82  36  18 W10G23    29.61F
LETHBRIDGE     PTSUNNY   79  43  27 SW16G23   29.68F
MEDICINE HAT   PTSUNNY   82  45  26 S18       29.63F
WATERTON GATE    N/A     75  39  27 SW20G33     N/A
CARDSTON         N/A     77  43  29 W7          N/A
MILK RIVER       N/A     81  43  26 W16G25      N/A
$$

REGIONAL REPORTS...SASKATCHEWAN

CITY           SKY/WX    TMP DP  RH WIND       PRES   REMARKS
SWIFT CURRENT  PTSUNNY   72  32  23 S22G30    29.78F
REGINA         PTSUNNY   72  32  23 S13G21    29.86F
SASKATOON      PTSUNNY   72  34  25 S16       29.74F
CYPRESS HILLS    N/A     68  36  30 S14G21      N/A
VAL MARIE        N/A     73  25  16 S17G23      N/A
ROCKGLEN         N/A     66  28  24 S22G28      N/A
$$




USA.gov is the U.S. government's official web portal to all federal, state and local government web resources and services.